TimeCST,TemperatureF,Dew PointF,Humidity,Sea Level PressureIn,VisibilityMPH,Wind Direction,Wind SpeedMPH,Gust SpeedMPH,PrecipitationIn,Events,Conditions,WindDirDegrees,DateUTC
12:55 AM,24.1,17.1,75,30.14,10.0,SW,5.8,-,N/A,,Clear,220,2013-11-28 06:55:00
1:55 AM,30.0,21.0,69,30.14,10.0,WSW,9.2,-,N/A,,Clear,250,2013-11-28 07:55:00
2:55 AM,24.1,19.0,81,30.18,10.0,WNW,6.9,-,N/A,,Clear,290,2013-11-28 08:55:00
3:55 AM,24.1,18.0,77,30.21,10.0,WNW,6.9,-,N/A,,Clear,290,2013-11-28 09:55:00
4:55 AM,25.0,19.0,78,30.24,10.0,NNW,8.1,-,N/A,,Clear,340,2013-11-28 10:55:00
5:55 AM,24.1,19.9,84,30.27,10.0,North,6.9,-,N/A,,Clear,350,2013-11-28 11:55:00
6:55 AM,25.0,19.9,81,30.30,10.0,North,5.8,-,N/A,,Clear,10,2013-11-28 12:55:00
7:55 AM,26.1,21.0,81,30.33,9.0,North,10.4,-,N/A,,Clear,360,2013-11-28 13:55:00
8:55 AM,27.0,21.0,78,30.38,8.0,NNE,10.4,-,N/A,,Clear,20,2013-11-28 14:55:00
9:55 AM,27.0,21.0,78,30.41,6.0,North,15.0,-,N/A,,Haze,360,2013-11-28 15:55:00
10:09 AM,27.0,21.0,78,30.36,6.0,North,15.0,-,N/A,,Haze,10,2013-11-28 16:09:00
10:55 AM,28.9,21.9,75,30.42,6.0,NNE,15.0,-,N/A,,Haze,20,2013-11-28 16:55:00
11:09 AM,30.9,23.0,72,30.37,6.0,NNE,11.5,-,N/A,,Haze,30,2013-11-28 17:09:00
11:55 AM,33.1,23.0,66,30.41,6.0,NNE,12.7,-,N/A,,Haze,20,2013-11-28 17:55:00
12:55 PM,36.0,23.0,59,30.40,6.0,North,11.5,-,N/A,,Haze,10,2013-11-28 18:55:00
1:55 PM,37.9,23.0,55,30.39,7.0,NNE,11.5,-,N/A,,Clear,20,2013-11-28 19:55:00
2:55 PM,37.9,23.0,55,30.40,7.0,NNE,10.4,-,N/A,,Clear,30,2013-11-28 20:55:00
3:55 PM,36.0,23.0,59,30.42,7.0,NNE,9.2,-,N/A,,Clear,20,2013-11-28 21:55:00
4:55 PM,32.0,21.0,64,30.43,7.0,NNE,6.9,-,N/A,,Clear,30,2013-11-28 22:55:00
5:55 PM,28.9,19.9,69,30.45,9.0,NE,5.8,-,N/A,,Clear,40,2013-11-28 23:55:00
6:55 PM,28.0,19.0,69,30.47,8.0,ENE,3.5,-,N/A,,Clear,60,2013-11-29 00:55:00
7:55 PM,25.0,19.0,78,30.48,8.0,East,4.6,-,N/A,,Clear,90,2013-11-29 01:55:00
8:55 PM,24.1,19.0,81,30.49,7.0,SE,3.5,-,N/A,,Clear,140,2013-11-29 02:55:00
9:55 PM,21.9,18.0,85,30.50,7.0,Calm,Calm,-,N/A,,Clear,0,2013-11-29 03:55:00
10:55 PM,21.0,17.1,85,30.50,6.0,ESE,3.5,-,N/A,,Clear,120,2013-11-29 04:55:00
11:55 PM,21.0,17.1,85,30.50,6.0,SE,3.5,-,N/A,,Clear,130,2013-11-29 05:55:00